Charleston, SC

11:03 AM EST on December 15, 2017 (GMT -0500)
Charleston Air Force Base-International

Weather History for KCHS - October, 2014

Change the Weather History Date:

Sunday, October 12, 2014

  Actual Average Record
Temperature  
Mean Temperature 79 °F 68 °F  
Max Temperature 87 °F 78 °F 87 °F (1954)
Min Temperature 70 °F 58 °F 40 °F (1945)
Degree Days  
Heating Degree Days 0 1  
Month to date heating degree days 6 12  
Since 1 July heating degree days 6 15  
Cooling Degree Days 14 5  
Month to date cooling degree days 103 70  
Year to date cooling degree days 2671 2208  
Growing Degree Days 28 (Base 50)    
Moisture  
Dew Point 69 °F    
Average Humidity 72    
Maximum Humidity 93    
Minimum Humidity 51    
Precipitation  
Precipitation 0.00 in 0.12 in 2.10 in (1977)
Month to date precipitation 0.01 1.74  
Year to date precipitation 44.00 43.48  
Sea Level Pressure  
Sea Level Pressure 30.09 in    
Wind  
Wind Speed 5 mph (ENE)    
Max Wind Speed 17 mph    
Max Gust Speed 20 mph    
Visibility 10 miles    
Events Fog    
T = Trace of Precipitation, MM = Missing Value Source: NWS Daily Summary

Daily Weather History Graph

Daily Weather History Graph

Search for Another Location

Airport or City:

Trip Planner

Search our weather history database for the weather conditions in past years. The results will help you decide how hot, cold, wet, or windy it might be!

Date:

Astronomy

Oct. 12, 2014 Rise Set
Actual Time 7:22 AM EDT 6:50 PM EDT
Civil Twilight 6:57 AM EDT 7:15 PM EDT
Nautical Twilight 6:28 AM EDT 7:44 PM EDT
Astronomical Twilight 6:00 AM EDT 8:12 PM EDT
Moon 10:17 PM EDT (10/12) 11:32 AM EDT (10/12)
Length of Visible Light 12h 18m
Length of Day
11h 28m
Waning Gibbous, 79% of the Moon is Illuminated
Oct 12
Waning Gibbous
Oct 15
Last Quarter
Oct 23
New
Oct 30
First Quarter
Nov 6
Full

Hourly Weather History & Observations

Time (EDT) Temp. Heat Index Dew Point Humidity Pressure Visibility Wind Dir Wind Speed Gust Speed Precip Events Conditions
12:56 AM 73.0 °F - 70.0 °F 90% 30.03 in 10.0 mi South 3.5 mph - N/A   Clear
1:56 AM 73.0 °F - 70.0 °F 90% 30.02 in 10.0 mi SSW 4.6 mph - N/A   Clear
2:56 AM 73.9 °F - 71.1 °F 91% 30.02 in 10.0 mi WSW 4.6 mph - N/A   Clear
3:56 AM 72.0 °F - 70.0 °F 93% 30.01 in 10.0 mi SW 4.6 mph - N/A   Clear
4:56 AM 72.0 °F - 69.1 °F 91% 30.02 in 10.0 mi Calm Calm - N/A   Clear
5:56 AM 72.0 °F - 69.1 °F 91% 30.04 in 10.0 mi Calm Calm - N/A   Clear
6:48 AM 71.6 °F - 68.0 °F 88% 30.06 in 6.0 mi North 3.5 mph - N/A   Scattered Clouds
6:56 AM 70.0 °F - 66.9 °F 90% 30.06 in 8.0 mi North 4.6 mph - N/A Fog Shallow Fog
7:56 AM 71.1 °F - 68.0 °F 90% 30.08 in 7.0 mi Calm Calm - N/A Fog Shallow Fog
8:56 AM 75.9 °F - 68.0 °F 76% 30.10 in 10.0 mi Calm Calm - N/A   Partly Cloudy
9:56 AM 78.1 °F - 68.0 °F 71% 30.11 in 10.0 mi WNW 3.5 mph - N/A   Partly Cloudy
10:56 AM 81.0 °F 83.8 °F 68.0 °F 65% 30.12 in 10.0 mi Calm Calm - N/A   Partly Cloudy
11:56 AM 82.9 °F 85.8 °F 68.0 °F 60% 30.11 in 10.0 mi NNE 3.5 mph - N/A   Clear
12:56 PM 86.0 °F 88.8 °F 66.9 °F 53% 30.11 in 10.0 mi NNE 4.6 mph - N/A   Partly Cloudy
1:56 PM 84.9 °F 88.2 °F 68.0 °F 57% 30.09 in 10.0 mi NE 3.5 mph - N/A   Mostly Cloudy
2:56 PM 86.0 °F 91.5 °F 71.1 °F 61% 30.08 in 10.0 mi ESE 11.5 mph - N/A   Scattered Clouds
3:56 PM 84.0 °F 89.0 °F 71.1 °F 65% 30.09 in 10.0 mi ESE 13.8 mph 19.6 mph N/A   Scattered Clouds
4:56 PM 81.0 °F 84.4 °F 70.0 °F 69% 30.10 in 10.0 mi ESE 12.7 mph - N/A   Scattered Clouds
5:56 PM 79.0 °F - 70.0 °F 74% 30.11 in 10.0 mi East 11.5 mph - N/A   Scattered Clouds
6:18 PM 78.8 °F - 69.8 °F 74% 30.11 in 10.0 mi East 8.1 mph - N/A   Mostly Cloudy
6:56 PM 78.1 °F - 70.0 °F 76% 30.12 in 10.0 mi East 9.2 mph - N/A   Mostly Cloudy
7:56 PM 77.0 °F - 70.0 °F 79% 30.13 in 10.0 mi East 9.2 mph - N/A   Mostly Cloudy
8:56 PM 75.9 °F - 70.0 °F 82% 30.14 in 10.0 mi East 8.1 mph - N/A   Mostly Cloudy
9:56 PM 73.9 °F - 70.0 °F 87% 30.15 in 10.0 mi ENE 4.6 mph - N/A   Mostly Cloudy
10:30 PM 73.4 °F - 69.8 °F 88% 30.16 in 10.0 mi NE 5.8 mph - N/A   Scattered Clouds
10:56 PM 73.9 °F - 70.0 °F 87% 30.16 in 10.0 mi ENE 3.5 mph - N/A   Scattered Clouds
11:26 PM 73.4 °F - 71.6 °F 94% 30.16 in 10.0 mi NE 3.5 mph - N/A   Mostly Cloudy
11:56 PM 73.9 °F - 71.1 °F 91% 30.16 in 10.0 mi NE 4.6 mph - N/A   Mostly Cloudy